Flag for Norway Weather past 2 weeks in Ålesund, Norway

Now
39 °F

Partly sunny.


Feels Like: 33 °F
Forecast: 42 / 46 °F
Wind: 9 mph from Southeast

Location: Alesund / Vigra

Current Time: Mar 27, 2015 at 9:49:41 AM

Latest Report: Mar 27, 2015 at 8:50 AM


Visibility: N/A

Pressure: 29.77 "Hg

Humidity: 61%

Dew point: 27 °F

Location of ÅlesundLocation

Historic Weather in Ålesund — Graph

°F

Ålesund temperature yesterday

Maximum temperature yesterday: 43 °F (at 1:50 PM)
Minimum temperature yesterday: 34 °F (at 8:50 PM)
Average temperature yesterday: 39 °F

Past Weeks' High & Low Weather Summary

 TemperatureHumidityPressure
High54 °F (Mar 16, 1:50 PM)100% (Mar 19, 8:50 PM)30.77 "Hg (Mar 19, 8:50 PM)
Low30 °F (Mar 14, 8:50 PM)28% (Mar 15, 4:20 PM)29.21 "Hg (Mar 23, 9:50 AM)
Average41 °F68%30.22 "Hg
* Reported Mar 12 8:20 AM — Mar 27 8:50 AM, Ålesund, Weather by CustomWeather, © 2015

Note: Actual official high and low records may vary slightly from our data, if they occured in-between our weather recording intervals... More about our weather records

Advertising

Ålesund weather history for previous 24 hours

 ConditionsComfort  
Time TempWeatherWind HumidityBarometerVisibility
8:50 AM
Fri, Mar 27
39 °FPartly sunny.9 mph61%29.77 "HgN/A
8:20 AM39 °FPartly sunny.8 mph61%29.77 "HgN/A
7:50 AM37 °FPartly sunny.8 mph70%29.77 "HgN/A
7:20 AM37 °FPartly sunny.7 mph70%29.77 "HgN/A
6:50 AM36 °FPartly sunny.7 mph75%29.77 "HgN/A
6:20 AM36 °FBroken clouds.7 mph75%29.74 "HgN/A
5:50 AM36 °FPartly cloudy.7 mph75%29.74 "HgN/A
5:20 AM36 °FPartly cloudy.8 mph70%29.74 "HgN/A
4:50 AM34 °FPassing clouds.6 mph75%29.74 "HgN/A
3:50 AM36 °FOvercast.7 mph70%29.74 "HgN/A
3:20 AM36 °FPassing clouds.6 mph70%29.74 "HgN/A
2:50 AM36 °FPassing clouds.6 mph70%29.74 "HgN/A
2:20 AM39 °FMostly cloudy.6 mph52%29.71 "HgN/A
1:50 AM34 °FOvercast.5 mph70%29.71 "HgN/A
1:20 AM36 °FOvercast.5 mph70%29.71 "HgN/A
12:50 AM37 °FClear.6 mph60%29.71 "Hg10 mi
12:20 AM37 °FClear.6 mph60%29.71 "Hg10 mi
11:20 PM
Thu, Mar 26
36 °FClear.5 mph70%29.68 "Hg10 mi
10:50 PM34 °FClear.5 mph70%29.68 "Hg10 mi
10:20 PM36 °FClear.3 mph70%29.68 "Hg10 mi
9:20 PM34 °FPassing clouds.5 mph75%29.68 "HgN/A
8:50 PM34 °FPartly cloudy.5 mph75%29.65 "HgN/A
8:20 PM36 °FPassing clouds.5 mph70%29.65 "HgN/A
7:50 PM36 °FPassing clouds.6 mph70%29.65 "HgN/A
7:20 PM37 °FPassing clouds.5 mph65%29.65 "HgN/A
6:50 PM37 °FScattered clouds.8 mph65%29.65 "HgN/A
6:20 PM37 °FScattered clouds.9 mph65%29.62 "HgN/A
5:50 PM41 °FScattered clouds.10 mph49%29.62 "HgN/A
5:20 PM41 °FScattered clouds.7 mph45%29.62 "HgN/A
4:50 PM41 °FScattered clouds.9 mph49%29.62 "HgN/A
4:20 PM43 °FScattered clouds.15 mph46%29.59 "HgN/A
3:50 PM41 °FPartly sunny.9 mph42%29.59 "HgN/A
3:20 PM41 °FPartly sunny.6 mph45%29.59 "HgN/A
2:50 PM41 °FPartly sunny.6 mph45%29.59 "HgN/A
2:20 PM41 °FPartly sunny.13 mph49%29.59 "HgN/A
1:50 PM43 °FBroken clouds.15 mph46%29.59 "HgN/A
12:20 PM41 °FPartly sunny.18 mph45%29.62 "HgN/A
11:50 AM39 °FPartly sunny.16 mph48%29.62 "HgN/A
11:20 AM39 °FScattered clouds.13 mph52%29.62 "HgN/A
10:50 AM39 °FBroken clouds.17 mph48%29.65 "HgN/A
10:20 AM39 °FBroken clouds.21 mph52%29.65 "HgN/A
9:50 AM41 °FScattered clouds.21 mph49%29.65 "HgN/A
9:20 AM41 °FScattered clouds.20 mph45%29.68 "HgN/A
Weather by CustomWeather, © 2015

See weather overviewHow to use our weather pages